Philadelphia, PA

1:50 PM EST on December 06, 2019 (GMT -0500)
Philadelphia International

Weather History for KPHL - June, 2019

Change the Weather History Date:

Friday, June 14, 2019

  Actual Average Record
Temperature  
Mean Temperature 65 °F 73 °F  
Max Temperature 73 °F 83 °F 96 °F (1988)
Min Temperature 57 °F 64 °F 48 °F (1965)
Degree Days  
Heating Degree Days 0 0  
Month to date heating degree days 3 9  
Since 1 June heating degree days 3 9  
Since 1 July heating degree days 4362 4611  
Cooling Degree Days 0 8  
Month to date cooling degree days 84 93  
Year to date cooling degree days 234 184  
Since 1 June cooling degree days 84 93  
Growing Degree Days 15 (Base 50)    
Moisture  
Dew Point 47 °F    
Average Humidity 63    
Maximum Humidity 93    
Minimum Humidity 33    
Precipitation  
Precipitation 0.00 in 0.12 in 1.88 in (1947)
Month to date precipitation 2.93 1.67  
Year to date precipitation 22.21 18.41  
Snow  
Snow 0.00 in 0.00 in 0.00 in ()
Month to date snowfall 0.0 0.0  
Since 1 June snowfall 0.0 0.0  
Since 1 July snowfall 17.1 22.4  
Snow Depth 0.00 in    
Sea Level Pressure  
Sea Level Pressure 29.95 in    
Wind  
Wind Speed 16 mph (West)    
Max Wind Speed 29 mph    
Max Gust Speed 37 mph    
Visibility 10 miles    
Events      
T = Trace of Precipitation, MM = Missing Value Source: NWS Daily Summary

Daily Weather History Graph

Daily Weather History Graph

Search for Another Location

Airport or City:

Astronomy

Jun. 14, 2019 Rise Set
Actual Time 5:31 AM EDT 8:30 PM EDT
Civil Twilight 4:59 AM EDT 9:03 PM EDT
Nautical Twilight 4:17 AM EDT 9:44 PM EDT
Astronomical Twilight 3:29 AM EDT 10:33 PM EDT
Moon 5:49 PM EDT (6/14) 3:48 AM EDT (6/14)
Length of Visible Light 16h 04m
Length of Day
14h 58m
Waxing Gibbous, 92% of the Moon is Illuminated
Jun 14
Waxing Gibbous
Jun 17
Full
Jun 25
Last Quarter
Jul 2
New
Jul 9
First Quarter

Hourly Weather History & Observations

Time (EDT) Temp. Dew Point Humidity Pressure Visibility Wind Dir Wind Speed Gust Speed Precip Events Conditions
12:54 AM 60.1 °F 55.9 °F 86% 29.82 in 10.0 mi West 10.4 mph - N/A   Mostly Cloudy
1:54 AM 57.9 °F 55.9 °F 93% 29.83 in 10.0 mi SW 9.2 mph - N/A   Partly Cloudy
2:54 AM 59.0 °F 54.0 °F 83% 29.83 in 10.0 mi WSW 17.3 mph - N/A   Clear
3:54 AM 57.9 °F 46.9 °F 67% 29.85 in 10.0 mi West 20.7 mph 29.9 mph N/A   Clear
4:54 AM 57.0 °F 46.0 °F 67% 29.86 in 10.0 mi West 19.6 mph - N/A   Partly Cloudy
5:54 AM 61.0 °F 48.0 °F 62% 29.87 in 10.0 mi SW 15.0 mph - N/A   Scattered Clouds
6:54 AM 60.1 °F 48.9 °F 67% 29.89 in 10.0 mi WSW 17.3 mph - N/A   Mostly Cloudy
7:54 AM 60.1 °F 48.0 °F 64% 29.91 in 10.0 mi WSW 15.0 mph - N/A   Mostly Cloudy
8:54 AM 61.0 °F 48.9 °F 64% 29.92 in 10.0 mi West 19.6 mph 28.8 mph N/A   Scattered Clouds
9:54 AM 64.9 °F 48.0 °F 54% 29.94 in 10.0 mi West 13.8 mph 26.5 mph N/A   Scattered Clouds
10:54 AM 64.0 °F 48.0 °F 56% 29.96 in 10.0 mi West 19.6 mph 27.6 mph N/A   Mostly Cloudy
11:54 AM 63.0 °F 46.9 °F 56% 29.97 in 10.0 mi WNW 19.6 mph 31.1 mph N/A   Mostly Cloudy
12:54 PM 66.9 °F 45.0 °F 45% 29.98 in 10.0 mi WNW 18.4 mph 27.6 mph N/A   Mostly Cloudy
1:54 PM 68.0 °F 44.1 °F 42% 30.00 in 10.0 mi West 21.9 mph 31.1 mph N/A   Mostly Cloudy
2:54 PM 70.0 °F 42.1 °F 36% 30.00 in 10.0 mi West 27.6 mph 35.7 mph N/A   Scattered Clouds
3:54 PM 71.1 °F 42.1 °F 35% 30.00 in 10.0 mi WNW 23.0 mph 29.9 mph N/A   Scattered Clouds
4:54 PM 73.0 °F 43.0 °F 34% 30.01 in 10.0 mi West 26.5 mph 32.2 mph N/A   Partly Cloudy
5:54 PM 71.1 °F 43.0 °F 36% 30.02 in 10.0 mi WNW 21.9 mph 31.1 mph N/A   Partly Cloudy
6:54 PM 72.0 °F 42.1 °F 34% 30.03 in 10.0 mi WNW 13.8 mph 21.9 mph N/A   Partly Cloudy
7:54 PM 72.0 °F 42.1 °F 34% 30.03 in 10.0 mi West 10.4 mph - N/A   Partly Cloudy
8:54 PM 66.0 °F 43.0 °F 43% 30.05 in 10.0 mi WSW 10.4 mph - N/A   Partly Cloudy
9:54 PM 66.9 °F 46.0 °F 47% 30.09 in 10.0 mi West 10.4 mph - N/A   Clear